Location: Newark
(16.3678°N, 77.8722°E)
Time: 17:06:26
(UTC+00:00)

Tiros 1 - Pass Details

Date: 15 December 2019
Orbit: 630 x 664 km, 48.4° (Epoch: 28 January)

Event Time Altitude Azimuth Distance (km) Brightness Sun altitude
Rises 06:27:50 0° 327° (NNW) 2,912 10.2 50.2°
Reaches altitude 10° 06:30:15 10° 334° (NNW) 2,001 9.4 50.2°
Maximum altitude 06:34:39 44° 47° (NE) 861 8.1 50.3°
Drops below altitude 10° 06:39:02 10° 119° (ESE) 1,996 10.1 50.4°
Sets 06:41:26 0° 126° (SE) 2,904 10.8 50.4°
